CZ-7A R/B, 66314

Orbit data source: Space-Track

CZ-7A R/B, 66314 is space debris originally from a launch on Mon, 03 Nov 2025 UTC launched from the Wenchang Satellite Launch Center (WSC). Debris objects in space refer to the collection of defunct objects orbiting the Earth. Examples of debris include non-operational satellites, rocket bodies, and fragments generated from explosions, collisions, or faulty payload assembly.

Loading next visibility...
Identifier
66314, 2025-250B
Orbit
Active
Country
Flag of CNCN / PRC
Related business
Manufacturer
CALT
Mission
Spacecraft
Bus & Motor
CZ-3A STAGE 3, Unknown motor
Mass
~2,800 kg wet, ~2,800 kg dry
Launch date (UTC)
2025-11-03 (5 days ago)
Launch vehicle
Unknown
Launch site
Wenchang Satellite Launch Center (WSC)
Object type
Payload
Rocket body
Debris
Shape & HBR
Unknown
Radar Cross Section
RCS unknown

Expand to show TLE details & history
Last TLE update: 3 days ago

TLE from 3 days ago
0 CZ-7A R/B
1 66314U 25250B   25308.78056345  .04554797 -13031-4  51460-3 0  9993
2 66314  19.9260 116.0532 3555489 130.5060 266.3968  8.58954420   196
Epoch: 2025-11-04T18:44Z
TLE epoch observation values (Epoch: 2025-11-04T18:44:00.682Z)
Latitude
0.00001°
Longitude
150.7877°
Altitude
5,057.627 km
Speed
5.491 km/s
True Right ascension
07h 44m 12s
True Declination
0° 00' 00"
Sunlit
Object was in daylight at epoch
Visualization orbit readout
Latitude
Unknown
Longitude
Unknown
Altitude
Unknown
Speed
Unknown
Apparent Right ascension
Unknown
Apparent Declination
Unknown
Sunlit
N/A
Visualization observer readout
Local Sidereal Time
17:57:30
Azimuth
Unknown
Elevation
Unknown
Doppler factor
Unknown
Orbital elements
Apogee altitude
7,280.099 km
Perigee altitude
115.222 km
Semi-major axis
10,075.797 km
Eccentricity
0.35555
Inclination
19.926°
RAAN
116.0532°
Arg. of periapsis
130.506°
True anomaly
229.52731°
Mean anomaly
266.3968°
Eccentric anomaly
247.56694°
Mean motion
2.14597 °/min
Orbital period
167.76 mins
BSTAR
0.0005146
Loading maneuver chart data...
Computing Atmospheric mass density...
Loading historical data...
Loading historical data...
Loading historical data...
Loading historical data...
Loading historical data...
Loading historical data...
Loading historical data...
Other satellites on launch #250 in the year 2025 (2025-11-03 UTC)

Documentation

Showing up to 5 results
|